Find Starlink 32628

NORAD ID: 62122 Int'l Des: 2024-222 Owner: SPXS Country: US Constellation: starlink operational
LEOCIRCULAR

Current View

Loading 3D Globe...

About Starlink 32628

Starlink 32628 (NORAD 62122) is a starlink constellation satellite (v2 mini) launched Nov 27, 2024 by SPXS of US. It operates in LEO, CIRCULAR orbit with a mass of 730.00 kg.

About Starlink 32628

Description loading...

Upcoming Passes

Passes for default location (London). Set your location on the main map for personalized predictions.

Altitude History

Loading altitude history...

Two-Line Element Set

1 62122U 24222J 26171.37368963 .00005532 00000-0 21038-3 0 9999
2 62122 43.0020 276.2422 0001057 261.7879 98.2852 15.27583400 88625
Epoch: Jun 20, 2026 • Age: 13 hours

Current Status

Altitude 483.1 km
Velocity 7.63 km/s
Sub-Earth Point -1.96°S, 39.44°E
Launch Date Nov 27, 2024
Age 1.5 years
Type internet

Technical Details

Classification Payload
Mass 730.00 kg
Dry Mass 700.00 kg
Total Mass 730.00 kg
Length 0.30 m
Diameter 4.10 m
Span 29.00 m
Shape Box + pan
Manufacturer SPXS
Bus Type Starlink V2M
Phase Status In Orbit
Owner/State SPXS/US

Most Searched